Date,TemperatureHighF,TemperatureAvgF,TemperatureLowF,DewpointHighF,DewpointAvgF,DewpointLowF,HumidityHigh,HumidityAvg,HumidityLow,PressureMaxIn,PressureMinIn,WindSpeedMaxMPH,WindSpeedAvgMPH,GustSpeedMaxMPH,PrecipitationSumIn
2013-1-1,32,26,12,-100,-100,-100,0,0,100,0.00,40.00,0,-999,0,0.00
2013-1-2,22,12,2,-100,-100,-100,0,0,100,0.00,40.00,0,-999,0,0.00
2013-1-3,18,10,-1,-100,-100,-100,0,0,100,0.00,40.00,0,-999,0,0.00
2013-1-4,35,27,17,-100,-100,-100,0,0,100,0.00,40.00,0,-999,0,0.00
2013-1-5,35,29,16,-100,-100,-100,0,0,100,0.00,40.00,0,-999,0,0.00
2013-1-6,37,28,16,-100,-100,-100,0,0,100,0.00,40.00,0,-999,0,0.00
2013-1-7,34,28,15,-100,-100,-100,0,0,100,0.00,40.00,0,-999,0,0.00
2013-1-8,41,29,18,-100,-100,-100,0,0,100,0.00,40.00,0,-999,0,0.00
2013-1-9,41,29,15,-100,-100,-100,0,0,100,0.00,40.00,0,-999,0,0.00
2013-1-10,40,36,29,-100,-100,-100,0,0,100,0.00,40.00,0,-999,0,0.00
2013-1-11,36,29,21,-100,-100,-100,0,0,100,0.00,40.00,0,-999,0,0.09
2013-1-12,41,36,32,-100,-100,-100,0,0,100,0.00,40.00,0,-999,0,0.12
2013-1-13,45,41,35,-100,-100,-100,0,0,100,0.00,40.00,0,-999,0,0.01
2013-1-14,54,43,34,-100,-100,-100,0,0,100,0.00,40.00,0,-999,0,0.00
2013-1-15,35,31,26,-100,-100,-100,0,0,100,0.00,40.00,0,-999,0,0.00
2013-1-16,31,28,26,-100,-100,-100,0,0,100,0.00,40.00,0,-999,0,0.28
2013-1-17,36,30,22,-100,-100,-100,0,0,100,0.00,40.00,0,-999,0,0.02
2013-1-18,22,15,9,-100,-100,-100,0,0,100,0.00,40.00,0,-999,0,0.00
2013-1-19,40,29,15,-100,-100,-100,0,0,100,0.00,40.00,0,-999,0,0.00
2013-1-20,43,34,23,-100,-100,-100,0,0,100,0.00,40.00,0,-999,0,0.00
2013-1-21,23,18,13,-100,-100,-100,0,0,100,0.00,40.00,0,-999,0,0.00
2013-1-22,16,13,6,-100,-100,-100,0,0,100,0.00,40.00,0,-999,0,0.00
2013-1-23,7,4,-3,-100,-100,-100,0,0,100,0.00,40.00,0,-999,0,0.00
2013-1-24,12,4,-4,-100,-100,-100,0,0,100,0.00,40.00,0,-999,0,0.00
2013-1-25,15,9,1,-100,-100,-100,0,0,100,0.00,40.00,0,-999,0,0.00
2013-1-26,16,10,4,-100,-100,-100,0,0,100,0.00,40.00,0,-999,0,0.00
2013-1-27,24,14,9,-100,-100,-100,0,0,100,0.00,40.00,0,-999,0,0.00
2013-1-28,22,18,11,-100,-100,-100,0,0,100,0.00,40.00,0,-999,0,0.12
2013-1-29,32,26,18,-100,-100,-100,0,0,100,0.00,40.00,0,-999,0,0.09
2013-1-30,54,42,31,-100,-100,-100,0,0,100,0.00,40.00,0,-999,0,0.05
2013-1-31,52,34,25,-100,-100,-100,0,0,100,0.00,40.00,0,-999,0,1.21
2013-2-1,25,22,17,-100,-100,-100,0,0,100,0.00,40.00,0,-999,0,0.03
2013-2-2,24,18,12,-100,-100,-100,0,0,100,0.00,40.00,0,-999,0,0.00
2013-2-3,25,20,14,-100,-100,-100,0,0,100,0.00,40.00,0,-999,0,0.00
2013-2-4,24,20,16,-100,-100,-100,0,0,100,0.00,40.00,0,-999,0,0.00
2013-2-5,27,19,11,-100,-100,-100,0,0,100,0.00,40.00,0,-999,0,0.00
2013-2-6,32,25,19,-100,-100,-100,0,0,100,0.00,40.00,0,-999,0,0.00
2013-2-7,24,18,12,-100,-100,-100,0,0,100,0.00,40.00,0,-999,0,0.00
2013-2-8,20,17,13,-100,-100,-100,0,0,100,0.00,40.00,0,-999,0,0.01
2013-2-9,19,14,11,-100,-100,-100,0,0,100,0.00,40.00,0,-999,0,0.05
2013-2-10,34,17,7,-100,-100,-100,0,0,100,0.00,40.00,0,-999,0,0.01
2013-2-11,36,24,7,-100,-100,-100,0,0,100,0.00,40.00,0,-999,0,0.22
2013-2-12,37,34,32,-100,-100,-100,0,0,100,0.00,40.00,0,-999,0,0.01
2013-2-13,37,31,25,-100,-100,-100,0,0,100,0.00,40.00,0,-999,0,0.00
2013-2-14,40,28,17,-100,-100,-100,0,0,100,0.00,40.00,0,-999,0,0.00
2013-2-15,49,34,23,-100,-100,-100,0,0,100,0.00,40.00,0,-999,0,0.00
2013-2-16,36,30,23,-100,-100,-100,0,0,100,0.00,40.00,0,-999,0,0.00
2013-2-17,23,16,11,-100,-100,-100,0,0,100,0.00,40.00,0,-999,0,0.00
2013-2-18,25,16,8,-100,-100,-100,0,0,100,0.00,40.00,0,-999,0,0.00
2013-2-19,42,29,13,-100,-100,-100,0,0,100,0.00,40.00,0,-999,0,0.10
2013-2-20,36,27,21,-100,-100,-100,0,0,100,0.00,40.00,0,-999,0,0.10
2013-2-21,25,22,18,-100,-100,-100,0,0,100,0.00,40.00,0,-999,0,0.00
2013-2-22,36,27,13,-100,-100,-100,0,0,100,0.00,40.00,0,-999,0,0.00
2013-2-23,32,30,28,-100,-100,-100,0,0,100,0.00,40.00,0,-999,0,0.03
2013-2-24,32,30,29,-100,-100,-100,0,0,100,0.00,40.00,0,-999,0,0.25
2013-2-25,33,30,23,-100,-100,-100,0,0,100,0.00,40.00,0,-999,0,0.07
2013-2-26,38,32,26,-100,-100,-100,0,0,100,0.00,40.00,0,-999,0,0.00
2013-2-27,34,32,30,-100,-100,-100,0,0,100,0.00,40.00,0,-999,0,0.64
2013-2-28,37,32,29,-100,-100,-100,0,0,100,0.00,40.00,0,-999,0,0.04
2013-3-1,35,33,30,-100,-100,-100,0,0,100,0.00,40.00,0,-999,0,0.00
2013-3-2,35,32,28,-100,-100,-100,0,0,100,0.00,40.00,0,-999,0,0.00
2013-3-3,34,29,24,-100,-100,-100,0,0,100,0.00,40.00,0,-999,0,0.00
2013-3-4,32,28,24,-100,-100,-100,0,0,100,0.00,40.00,0,-999,0,0.00
2013-3-5,39,32,25,-100,-100,-100,0,0,100,0.00,40.00,0,-999,0,0.00
2013-3-6,33,32,29,-100,-100,-100,0,0,100,0.00,40.00,0,-999,0,0.01
2013-3-7,31,29,26,-100,-100,-100,0,0,100,0.00,40.00,0,-999,0,0.01
2013-3-8,38,31,25,-100,-100,-100,0,0,100,0.00,40.00,0,-999,0,0.01
2013-3-9,53,33,15,-100,-100,-100,0,0,100,0.00,40.00,0,-999,0,11.87
2013-3-10,49,32,16,-100,-100,-100,0,0,100,0.00,40.00,0,-999,0,11.87
2013-3-11,46,39,32,-100,-100,-100,0,0,100,0.00,40.00,0,-999,0,0.00
2013-3-12,49,45,38,-100,-100,-100,0,0,100,0.00,40.00,0,-999,0,0.55
2013-3-13,44,38,32,-100,-100,-100,0,0,100,0.00,40.00,0,-999,0,0.34
2013-3-14,33,26,18,-100,-100,-100,0,0,100,0.00,40.00,0,-999,0,0.00
2013-3-15,35,25,15,-100,-100,-100,0,0,100,0.00,40.00,0,-999,0,0.00
2013-3-16,33,27,20,-100,-100,-100,0,0,100,0.00,40.00,0,-999,0,0.00
2013-3-17,29,22,14,-100,-100,-100,0,0,100,0.00,40.00,0,-999,0,0.00
2013-3-18,35,23,7,-100,-100,-100,0,0,100,0.00,40.00,0,-999,0,0.01
2013-3-19,30,27,23,-100,-100,-100,0,0,100,0.00,40.00,0,-999,0,0.57
2013-3-20,33,26,21,-100,-100,-100,0,0,100,0.00,40.00,0,-999,0,0.05
2013-3-21,37,27,11,-100,-100,-100,0,0,100,0.00,40.00,0,-999,0,0.00
2013-3-22,36,28,19,-100,-100,-100,0,0,100,0.00,40.00,0,-999,0,0.00
2013-3-23,38,30,24,-100,-100,-100,0,0,100,0.00,40.00,0,-999,0,0.00
2013-3-24,39,33,26,-100,-100,-100,0,0,100,0.00,40.00,0,-999,0,0.00
2013-3-25,39,31,20,-100,-100,-100,0,0,100,0.00,40.00,0,-999,0,0.00
2013-3-26,43,36,29,-100,-100,-100,0,0,100,0.00,40.00,0,-999,0,0.00
2013-3-27,45,37,28,-100,-100,-100,0,0,100,0.00,40.00,0,-999,0,0.00
2013-3-28,44,38,32,-100,-100,-100,0,0,100,0.00,40.00,0,-999,0,0.00
2013-3-29,49,41,32,-100,-100,-100,0,0,100,0.00,40.00,0,-999,0,0.00
2013-3-30,50,39,28,-100,-100,-100,0,0,100,0.00,40.00,0,-999,0,0.00
2013-3-31,53,38,22,-100,-100,-100,0,0,100,0.00,40.00,0,-999,0,0.06
2013-4-1,52,39,29,-100,-100,-100,0,0,100,0.00,40.00,0,-999,0,0.35
2013-4-2,32,28,24,-100,-100,-100,0,0,100,0.00,40.00,0,-999,0,0.01
2013-4-3,40,30,24,-100,-100,-100,0,0,100,0.00,40.00,0,-999,0,0.00
2013-4-4,52,38,26,-100,-100,-100,0,0,100,0.00,40.00,0,-999,0,0.00
2013-4-5,53,41,33,-100,-100,-100,0,0,100,0.00,40.00,0,-999,0,0.00
2013-4-6,39,31,24,-100,-100,-100,0,0,100,0.00,40.00,0,-999,0,0.00
2013-4-7,53,38,23,-100,-100,-100,0,0,100,0.00,40.00,0,-999,0,0.00
2013-4-8,59,46,36,-100,-100,-100,0,0,100,0.00,40.00,0,-999,0,0.00
2013-4-9,60,49,38,-100,-100,-100,0,0,100,0.00,40.00,0,-999,0,0.02
2013-4-10,53,47,43,-100,-100,-100,0,0,100,0.00,40.00,0,-999,0,0.72
2013-4-11,44,40,34,-100,-100,-100,0,0,100,0.00,40.00,0,-999,0,0.53
2013-4-12,34,32,29,-100,-100,-100,0,0,100,0.00,40.00,0,-999,0,0.45
2013-4-13,48,38,31,-100,-100,-100,0,0,100,0.00,40.00,0,-999,0,0.03
2013-4-14,43,39,30,-100,-100,-100,0,0,100,0.00,40.00,0,-999,0,0.01
2013-4-15,57,42,27,-100,-100,-100,0,0,100,0.00,40.00,0,-999,0,0.00
2013-4-16,62,48,35,-100,-100,-100,0,0,100,0.00,40.00,0,-999,0,0.00
2013-4-17,58,51,40,-100,-100,-100,0,0,100,0.00,40.00,0,-999,0,0.03
2013-4-18,59,47,31,-100,-100,-100,0,0,100,0.00,40.00,0,-999,0,0.00
2013-4-19,70,59,49,-100,-100,-100,0,0,100,0.00,40.00,0,-999,0,0.10
2013-4-20,63,46,36,-100,-100,-100,0,0,100,0.00,40.00,0,-999,0,0.42
2013-4-21,47,37,31,-100,-100,-100,0,0,100,0.00,40.00,0,-999,0,0.03
2013-4-22,50,38,28,-100,-100,-100,0,0,100,0.00,40.00,0,-999,0,0.00
2013-4-23,37,34,32,-100,-100,-100,0,0,100,0.00,40.00,0,-999,0,0.00
2013-4-24,71,53,37,-100,-100,-100,0,0,100,0.00,40.00,0,-999,0,0.00
2013-4-25,56,49,38,-100,-100,-100,0,0,100,0.00,40.00,0,-999,0,0.00
2013-4-26,57,45,31,-100,-100,-100,0,0,100,0.00,40.00,0,-999,0,0.00
2013-4-27,63,49,32,-100,-100,-100,0,0,100,0.00,40.00,0,-999,0,0.00
2013-4-28,68,53,36,-100,-100,-100,0,0,100,0.00,40.00,0,-999,0,0.00
2013-4-29,66,54,44,-100,-100,-100,0,0,100,0.00,40.00,0,-999,0,0.00
2013-4-30,68,57,48,-100,-100,-100,0,0,100,0.00,40.00,0,-999,0,0.00
2013-5-1,71,55,37,-100,-100,-100,0,0,100,0.00,40.00,0,-999,0,0.00
2013-5-2,75,56,41,-100,-100,-100,0,0,100,0.00,40.00,0,-999,0,0.00
2013-5-3,62,50,38,-100,-100,-100,0,0,100,0.00,40.00,0,-999,0,0.00
2013-5-4,65,52,39,-100,-100,-100,0,0,100,0.00,40.00,0,-999,0,0.00
2013-5-5,67,50,33,-100,-100,-100,0,0,100,0.00,40.00,0,-999,0,0.00
2013-5-6,73,55,35,-100,-100,-100,0,0,100,0.00,40.00,0,-999,0,0.00
2013-5-7,78,62,44,-100,-100,-100,0,0,100,0.00,40.00,0,-999,0,0.00
2013-5-8,69,60,51,-100,-100,-100,0,0,100,0.00,40.00,0,-999,0,0.37
2013-5-9,66,59,55,-100,-100,-100,0,0,100,0.00,40.00,0,-999,0,0.38
2013-5-10,75,62,48,-100,-100,-100,0,0,100,0.00,40.00,0,-999,0,0.01
2013-5-11,62,60,56,-100,-100,-100,0,0,100,0.00,40.00,0,-999,0,0.56
2013-5-12,61,55,45,-100,-100,-100,0,0,100,0.00,40.00,0,-999,0,0.21
2013-5-13,48,44,39,-100,-100,-100,0,0,100,0.00,40.00,0,-999,0,0.09
2013-5-14,51,45,35,-100,-100,-100,0,0,100,0.00,40.00,0,-999,0,0.00
2013-5-15,60,47,31,-100,-100,-100,0,0,100,0.00,40.00,0,-999,0,0.01
2013-5-16,74,61,46,-100,-100,-100,0,0,100,0.00,40.00,0,-999,0,0.01
2013-5-17,63,54,44,-100,-100,-100,0,0,100,0.00,40.00,0,-999,0,0.00
2013-5-18,69,55,38,-100,-100,-100,0,0,100,0.00,40.00,0,-999,0,0.00
2013-5-19,67,54,43,-100,-100,-100,0,0,100,0.00,40.00,0,-999,0,0.06
2013-5-20,74,63,53,-100,-100,-100,0,0,100,0.00,40.00,0,-999,0,0.07
2013-5-21,79,62,48,-100,-100,-100,0,0,100,0.00,40.00,0,-999,0,0.06
2013-5-22,70,57,48,-100,-100,-100,0,0,100,0.00,40.00,0,-999,0,1.32
2013-5-23,72,61,51,-100,-100,-100,0,0,100,0.00,40.00,0,-999,0,0.58
2013-5-24,67,57,44,-100,-100,-100,0,0,100,0.00,40.00,0,-999,0,0.47
2013-5-25,45,43,38,-100,-100,-100,0,0,100,0.00,40.00,0,-999,0,0.28
2013-5-26,50,44,36,-100,-100,-100,0,0,100,0.00,40.00,0,-999,0,0.06
2013-5-27,65,51,35,-100,-100,-100,0,0,100,0.00,40.00,0,-999,0,0.00
2013-5-28,71,56,38,-100,-100,-100,0,0,100,0.00,40.00,0,-999,0,0.00
2013-5-29,65,58,53,-100,-100,-100,0,0,100,0.00,40.00,0,-999,0,0.45
2013-5-30,83,71,58,-100,-100,-100,0,0,100,0.00,40.00,0,-999,0,0.18
2013-5-31,89,76,59,-100,-100,-100,0,0,100,0.00,40.00,0,-999,0,0.00
2013-6-1,89,76,63,-100,-100,-100,0,0,100,0.00,40.00,0,-999,0,0.00
2013-6-2,85,74,67,-100,-100,-100,0,0,100,0.00,40.00,0,-999,0,0.11
2013-6-3,74,66,55,-100,-100,-100,0,0,100,0.00,40.00,0,-999,0,0.17
2013-6-4,65,56,46,-100,-100,-100,0,0,100,0.00,40.00,0,-999,0,0.03
2013-6-5,70,59,46,-100,-100,-100,0,0,100,0.00,40.00,0,-999,0,0.00
2013-6-6,69,59,49,-100,-100,-100,0,0,100,0.00,40.00,0,-999,0,0.01
2013-6-7,54,50,47,-100,-100,-100,0,0,100,0.00,40.00,0,-999,0,1.24
2013-6-8,69,58,48,-100,-100,-100,0,0,100,0.00,40.00,0,-999,0,1.24
2013-6-9,72,63,53,-100,-100,-100,0,0,100,0.00,40.00,0,-999,0,0.02
2013-6-10,68,59,52,-100,-100,-100,0,0,100,0.00,40.00,0,-999,0,0.42
2013-6-11,56,54,52,-100,-100,-100,0,0,100,0.00,40.00,0,-999,0,1.39
2013-6-12,62,57,51,-100,-100,-100,0,0,100,0.00,40.00,0,-999,0,0.30
2013-6-13,59,52,47,-100,-100,-100,0,0,100,0.00,40.00,0,-999,0,0.51
2013-6-14,72,58,49,-100,-100,-100,0,0,100,0.00,40.00,0,-999,0,0.64
2013-6-15,71,62,50,-100,-100,-100,0,0,100,0.00,40.00,0,-999,0,0.07
2013-6-16,71,61,50,-100,-100,-100,0,0,100,0.00,40.00,0,-999,0,0.00
2013-6-17,81,65,55,-100,-100,-100,0,0,100,0.00,40.00,0,-999,0,0.06
2013-6-18,63,58,54,-100,-100,-100,0,0,100,0.00,40.00,0,-999,0,0.02
2013-6-19,69,59,47,-100,-100,-100,0,0,100,0.00,40.00,0,-999,0,0.01
2013-6-20,75,58,45,-100,-100,-100,0,0,100,0.00,40.00,0,-999,0,0.00
2013-6-22,81,77,69,-100,-100,-100,0,0,100,0.00,40.00,0,-999,0,0.00
2013-6-23,86,75,63,-100,-100,-100,0,0,100,0.00,40.00,0,-999,0,0.00
2013-6-24,87,76,66,-100,-100,-100,0,0,100,0.00,40.00,0,-999,0,0.32
2013-6-25,86,73,65,-100,-100,-100,0,0,100,0.00,40.00,0,-999,0,0.65
2013-6-26,75,69,65,-100,-100,-100,0,0,100,0.00,40.00,0,-999,0,0.71
2013-6-27,74,67,62,-100,-100,-100,0,0,100,0.00,40.00,0,-999,0,0.03
2013-6-28,77,64,55,-100,-100,-100,0,0,100,0.00,40.00,0,-999,0,0.65
2013-6-29,79,72,66,-100,-100,-100,0,0,100,0.00,40.00,0,-999,0,0.03
2013-6-30,81,73,67,-100,-100,-100,0,0,100,0.00,40.00,0,-999,0,0.00
2013-7-1,74,71,68,-100,-100,-100,0,0,100,0.00,40.00,0,-999,0,0.55
2013-7-2,79,71,61,-100,-100,-100,0,0,100,0.00,40.00,0,-999,0,0.24
2013-7-3,82,74,60,-100,-100,-100,0,0,100,0.00,40.00,0,-999,0,0.00
2013-7-4,90,80,70,-100,-100,-100,0,0,100,0.00,40.00,0,-999,0,0.00
2013-7-5,90,80,71,-100,-100,-100,0,0,100,0.00,40.00,0,-999,0,0.00
2013-7-6,83,78,70,-100,-100,-100,0,0,100,0.00,40.00,0,-999,0,0.00
2013-7-7,86,75,65,-100,-100,-100,0,0,100,0.00,40.00,0,-999,0,0.00
2013-7-8,84,74,66,-100,-100,-100,0,0,100,0.00,40.00,0,-999,0,0.43
2013-7-9,74,67,62,-100,-100,-100,0,0,100,0.00,40.00,0,-999,0,0.43
2013-7-10,78,70,65,-100,-100,-100,0,0,100,0.00,40.00,0,-999,0,0.27
2013-7-11,80,73,65,-100,-100,-100,0,0,100,0.00,40.00,0,-999,0,0.01
2013-7-12,76,68,61,-100,-100,-100,0,0,100,0.00,40.00,0,-999,0,0.00
2013-7-13,75,67,61,-100,-100,-100,0,0,100,0.00,40.00,0,-999,0,0.00
2013-7-14,83,76,68,-100,-100,-100,0,0,100,0.00,40.00,0,-999,0,0.00
2013-7-15,86,76,67,-100,-100,-100,0,0,100,0.00,40.00,0,-999,0,0.00
2013-7-16,85,76,66,-100,-100,-100,0,0,100,0.00,40.00,0,-999,0,0.00
2013-7-17,90,78,65,-100,-100,-100,0,0,100,0.00,40.00,0,-999,0,0.00
2013-7-18,91,80,72,-100,-100,-100,0,0,100,0.00,40.00,0,-999,0,0.00
2013-7-19,92,82,71,-100,-100,-100,0,0,100,0.00,40.00,0,-999,0,0.00
2013-7-20,84,77,69,-100,-100,-100,0,0,100,0.00,40.00,0,-999,0,0.02
2013-7-21,79,71,62,-100,-100,-100,0,0,100,0.00,40.00,0,-999,0,0.00
2013-7-22,78,68,62,-100,-100,-100,0,0,100,0.00,40.00,0,-999,0,0.00
2013-7-23,75,66,63,-100,-100,-100,0,0,100,0.00,40.00,0,-999,0,1.62
2013-7-24,75,69,57,-100,-100,-100,0,0,100,0.00,40.00,0,-999,0,0.12
2013-7-25,66,59,52,-100,-100,-100,0,0,100,0.00,40.00,0,-999,0,0.00
2013-7-26,67,62,59,-100,-100,-100,0,0,100,0.00,40.00,0,-999,0,0.22
2013-7-27,80,68,55,-100,-100,-100,0,0,100,0.00,40.00,0,-999,0,0.02
2013-7-28,79,68,57,-100,-100,-100,0,0,100,0.00,40.00,0,-999,0,0.06
2013-7-29,81,71,64,-100,-100,-100,0,0,100,0.00,40.00,0,-999,0,0.06
2013-7-30,74,66,57,-100,-100,-100,0,0,100,0.00,40.00,0,-999,0,0.00
2013-7-31,79,67,57,-100,-100,-100,0,0,100,0.00,40.00,0,-999,0,0.00
2013-8-1,75,64,56,-100,-100,-100,0,0,100,0.00,40.00,0,-999,0,0.19
2013-8-2,77,68,61,-100,-100,-100,0,0,100,0.00,40.00,0,-999,0,0.35
2013-8-3,76,66,58,-100,-100,-100,0,0,100,0.00,40.00,0,-999,0,0.01
2013-8-4,73,62,54,-100,-100,-100,0,0,100,0.00,40.00,0,-999,0,0.00
2013-8-5,69,60,52,-100,-100,-100,0,0,100,0.00,40.00,0,-999,0,0.00
2013-8-6,74,61,47,-100,-100,-100,0,0,100,0.00,40.00,0,-999,0,0.00
2013-8-7,76,64,53,-100,-100,-100,0,0,100,0.00,40.00,0,-999,0,0.00
2013-8-8,77,70,62,-100,-100,-100,0,0,100,0.00,40.00,0,-999,0,0.00
2013-8-9,74,70,68,-100,-100,-100,0,0,100,0.00,40.00,0,-999,0,1.61
2013-8-10,76,69,59,-100,-100,-100,0,0,100,0.00,40.00,0,-999,0,0.01
2013-8-11,74,61,51,-100,-100,-100,0,0,100,0.00,40.00,0,-999,0,0.00
2013-8-12,77,64,54,-100,-100,-100,0,0,100,0.00,40.00,0,-999,0,0.00
2013-8-13,68,64,60,-100,-100,-100,0,0,100,0.00,40.00,0,-999,0,0.17
2013-8-14,66,61,54,-100,-100,-100,0,0,100,0.00,40.00,0,-999,0,0.01
2013-8-15,70,59,48,-100,-100,-100,0,0,100,0.00,40.00,0,-999,0,0.00
2013-8-16,73,61,50,-100,-100,-100,0,0,100,0.00,40.00,0,-999,0,0.00
2013-8-17,77,63,50,-100,-100,-100,0,0,100,0.00,40.00,0,-999,0,0.00
2013-8-18,75,65,54,-100,-100,-100,0,0,100,0.00,40.00,0,-999,0,0.00
2013-8-19,76,65,55,-100,-100,-100,0,0,100,0.00,40.00,0,-999,0,0.00
2013-8-20,80,68,57,-100,-100,-100,0,0,100,0.00,40.00,0,-999,0,0.00
2013-8-21,83,70,58,-100,-100,-100,0,0,100,0.00,40.00,0,-999,0,0.00
2013-8-22,84,72,59,-100,-100,-100,0,0,100,0.00,40.00,0,-999,0,0.05
2013-8-23,71,66,55,-100,-100,-100,0,0,100,0.00,40.00,0,-999,0,0.05
2013-8-24,75,60,47,-100,-100,-100,0,0,100,0.00,40.00,0,-999,0,0.00
2013-8-25,78,63,49,-100,-100,-100,0,0,100,0.00,40.00,0,-999,0,0.00
2013-8-26,74,68,59,-100,-100,-100,0,0,100,0.00,40.00,0,-999,0,0.09
2013-8-27,79,69,65,-100,-100,-100,0,0,100,0.00,40.00,0,-999,0,0.01
2013-8-28,81,74,65,-100,-100,-100,0,0,100,0.00,40.00,0,-999,0,0.10
2013-8-29,65,62,59,-100,-100,-100,0,0,100,0.00,40.00,0,-999,0,0.56
2013-8-30,81,68,58,-100,-100,-100,0,0,100,0.00,40.00,0,-999,0,0.00
2013-8-31,76,70,66,-100,-100,-100,0,0,100,0.00,40.00,0,-999,0,0.21
2013-9-1,80,73,66,-100,-100,-100,0,0,100,0.00,40.00,0,-999,0,0.01
2013-9-2,77,71,65,-100,-100,-100,0,0,100,0.00,40.00,0,-999,0,0.46
2013-9-3,72,66,61,-100,-100,-100,0,0,100,0.00,40.00,0,-999,0,0.05
2013-9-4,75,65,57,-100,-100,-100,0,0,100,0.00,40.00,0,-999,0,0.00
2013-9-5,63,59,47,-100,-100,-100,0,0,100,0.00,40.00,0,-999,0,0.00
2013-9-6,65,52,39,-100,-100,-100,0,0,100,0.00,40.00,0,-999,0,0.00
2013-9-7,74,60,45,-100,-100,-100,0,0,100,0.00,40.00,0,-999,0,0.00
2013-9-8,65,59,46,-100,-100,-100,0,0,100,0.00,40.00,0,-999,0,0.00
2013-9-9,64,53,40,-100,-100,-100,0,0,100,0.00,40.00,0,-999,0,0.00
2013-9-10,71,63,54,-100,-100,-100,0,0,100,0.00,40.00,0,-999,0,0.17
2013-9-11,90,77,67,-100,-100,-100,0,0,100,0.00,40.00,0,-999,0,0.14
2013-9-12,76,68,63,-100,-100,-100,0,0,100,0.00,40.00,0,-999,0,3.33
2013-9-13,66,62,56,-100,-100,-100,0,0,100,0.00,40.00,0,-999,0,2.07
2013-9-14,59,54,48,-100,-100,-100,0,0,100,0.00,40.00,0,-999,0,0.04
2013-9-15,66,54,46,-100,-100,-100,0,0,100,0.00,40.00,0,-999,0,0.00
2013-9-16,61,54,43,-100,-100,-100,0,0,100,0.00,40.00,0,-999,0,0.02
2013-9-17,63,47,35,-100,-100,-100,0,0,100,0.00,40.00,0,-999,0,0.02
2013-9-18,50,41,38,-100,-100,-100,0,0,100,0.00,40.00,0,-999,0,0.00
2013-9-19,75,58,43,-100,-100,-100,0,0,100,0.00,40.00,0,-999,0,0.00
2013-9-20,76,59,45,-100,-100,-100,0,0,100,0.00,40.00,0,-999,0,0.00
2013-9-21,70,61,52,-100,-100,-100,0,0,100,0.00,40.00,0,-999,0,0.00
2013-9-22,66,59,49,-100,-100,-100,0,0,100,0.00,40.00,0,-999,0,0.85
2013-9-23,55,48,41,-100,-100,-100,0,0,100,0.00,40.00,0,-999,0,0.02
2013-9-24,60,50,43,-100,-100,-100,0,0,100,0.00,40.00,0,-999,0,0.00
2013-9-25,63,54,45,-100,-100,-100,0,0,100,0.00,40.00,0,-999,0,0.00
2013-9-26,63,54,49,-100,-100,-100,0,0,100,0.00,40.00,0,-999,0,0.00
2013-9-27,62,54,48,-100,-100,-100,0,0,100,0.00,40.00,0,-999,0,0.00
2013-9-28,70,54,42,-100,-100,-100,0,0,100,0.00,40.00,0,-999,0,0.00
2013-9-29,68,53,42,-100,-100,-100,0,0,100,0.00,40.00,0,-999,0,0.00
2013-9-30,67,52,39,-100,-100,-100,0,0,100,0.00,40.00,0,-999,0,0.00
2013-10-1,60,56,47,-100,-100,-100,0,0,100,0.00,40.00,0,-999,0,0.00
2013-10-2,74,61,49,-100,-100,-100,0,0,100,0.00,40.00,0,-999,0,0.00
2013-10-3,71,60,49,-100,-100,-100,0,0,100,0.00,40.00,0,-999,0,0.00
2013-10-4,59,54,49,-100,-100,-100,0,0,100,0.00,40.00,0,-999,0,0.13
2013-10-5,63,58,55,-100,-100,-100,0,0,100,0.00,40.00,0,-999,0,0.02
2013-10-6,57,51,48,-100,-100,-100,0,0,100,0.00,40.00,0,-999,0,0.23
2013-10-7,70,57,50,-100,-100,-100,0,0,100,0.00,40.00,0,-999,0,0.81
2013-10-8,58,51,39,-100,-100,-100,0,0,100,0.00,40.00,0,-999,0,0.64
2013-10-9,58,44,34,-100,-100,-100,0,0,100,0.00,40.00,0,-999,0,0.00
2013-10-10,57,46,36,-100,-100,-100,0,0,100,0.00,40.00,0,-999,0,0.00
2013-10-11,68,52,41,-100,-100,-100,0,0,100,0.00,40.00,0,-999,0,0.00
2013-10-12,51,47,41,-100,-100,-100,0,0,100,0.00,40.00,0,-999,0,0.01
2013-10-13,55,48,43,-100,-100,-100,0,0,100,0.00,40.00,0,-999,0,0.01
2013-10-14,65,50,36,-100,-100,-100,0,0,100,0.00,40.00,0,-999,0,0.00
2013-10-15,61,55,50,-100,-100,-100,0,0,100,0.00,40.00,0,-999,0,0.00
2013-10-16,56,51,47,-100,-100,-100,0,0,100,0.00,40.00,0,-999,0,0.00
2013-10-17,68,57,48,-100,-100,-100,0,0,100,0.00,40.00,0,-999,0,0.00
2013-10-18,60,56,48,-100,-100,-100,0,0,100,0.00,40.00,0,-999,0,0.13
2013-10-19,61,50,37,-100,-100,-100,0,0,100,0.00,40.00,0,-999,0,0.03
2013-10-20,54,49,39,-100,-100,-100,0,0,100,0.00,40.00,0,-999,0,0.02
2013-10-21,63,47,34,-100,-100,-100,0,0,100,0.00,40.00,0,-999,0,0.00
2013-10-22,56,49,42,-100,-100,-100,0,0,100,0.00,40.00,0,-999,0,0.01
2013-10-23,49,42,32,-100,-100,-100,0,0,100,0.00,40.00,0,-999,0,0.01
2013-10-24,46,41,32,-100,-100,-100,0,0,100,0.00,40.00,0,-999,0,0.00
2013-10-25,44,37,29,-100,-100,-100,0,0,100,0.00,40.00,0,-999,0,0.00
2013-10-26,49,40,28,-100,-100,-100,0,0,100,0.00,40.00,0,-999,0,0.00
2013-10-27,48,44,37,-100,-100,-100,0,0,100,0.00,40.00,0,-999,0,0.00
2013-10-28,52,40,30,-100,-100,-100,0,0,100,0.00,40.00,0,-999,0,0.00
2013-10-29,43,32,22,-100,-100,-100,0,0,100,0.00,40.00,0,-999,0,0.00
2013-10-30,48,36,27,-100,-100,-100,0,0,100,0.00,40.00,0,-999,0,0.00
2013-10-31,58,44,30,-100,-100,-100,0,0,100,0.00,40.00,0,-999,0,0.31
2013-11-1,63,59,54,-100,-100,-100,0,0,100,0.00,40.00,0,-999,0,0.45
2013-11-2,60,50,40,-100,-100,-100,0,0,100,0.00,40.00,0,-999,0,0.04
2013-11-3,44,36,30,-100,-100,-100,0,0,100,0.00,40.00,0,-999,0,0.04
2013-11-4,38,29,23,-100,-100,-100,0,0,100,0.00,40.00,0,-999,0,0.00
2013-11-5,46,33,23,-100,-100,-100,0,0,100,0.00,40.00,0,-999,0,0.00
2013-11-6,55,46,37,-100,-100,-100,0,0,100,0.00,40.00,0,-999,0,0.00
2013-11-7,57,49,38,-100,-100,-100,0,0,100,0.00,40.00,0,-999,0,0.08
2013-11-8,41,35,30,-100,-100,-100,0,0,100,0.00,40.00,0,-999,0,0.01
2013-11-9,40,35,30,-100,-100,-100,0,0,100,0.00,40.00,0,-999,0,0.01
2013-11-10,47,40,34,-100,-100,-100,0,0,100,0.00,40.00,0,-999,0,0.03
2013-11-11,46,40,35,-100,-100,-100,0,0,100,0.00,40.00,0,-999,0,0.03
2013-11-12,42,31,24,-100,-100,-100,0,0,100,0.00,40.00,0,-999,0,0.00
2013-11-13,30,25,20,-100,-100,-100,0,0,100,0.00,40.00,0,-999,0,0.00
2013-11-14,46,36,27,-100,-100,-100,0,0,100,0.00,40.00,0,-999,0,0.00
2013-11-15,53,40,28,-100,-100,-100,0,0,100,0.00,40.00,0,-999,0,0.00
2013-11-16,56,40,30,-100,-100,-100,0,0,100,0.00,40.00,0,-999,0,0.00
2013-11-17,43,37,28,-100,-100,-100,0,0,100,0.00,40.00,0,-999,0,0.04
2013-11-18,59,52,42,-100,-100,-100,0,0,100,0.00,40.00,0,-999,0,0.46
2013-11-19,43,34,27,-100,-100,-100,0,0,100,0.00,40.00,0,-999,0,0.01
2013-11-20,36,28,21,-100,-100,-100,0,0,100,0.00,40.00,0,-999,0,0.00
2013-11-21,43,30,17,-100,-100,-100,0,0,100,0.00,40.00,0,-999,0,0.00
2013-11-22,43,38,35,-100,-100,-100,0,0,100,0.00,40.00,0,-999,0,0.15
2013-11-23,45,35,25,-100,-100,-100,0,0,100,0.00,40.00,0,-999,0,0.02
2013-11-24,25,18,15,-100,-100,-100,0,0,100,0.00,40.00,0,-999,0,0.00
2013-11-25,28,20,12,-100,-100,-100,0,0,100,0.00,40.00,0,-999,0,0.00
2013-11-26,33,29,25,-100,-100,-100,0,0,100,0.00,40.00,0,-999,0,0.11
2013-11-27,46,37,31,-100,-100,-100,0,0,100,0.00,40.00,0,-999,0,2.07
2013-11-28,32,25,19,-100,-100,-100,0,0,100,0.00,40.00,0,-999,0,0.03
2013-11-29,26,20,11,-100,-100,-100,0,0,100,0.00,40.00,0,-999,0,0.00
2013-11-30,27,18,7,-100,-100,-100,0,0,100,0.00,40.00,0,-999,0,0.00
2013-12-1,37,31,26,-100,-100,-100,0,0,100,0.00,40.00,0,-999,0,0.00
2013-12-2,36,34,32,-100,-100,-100,0,0,100,0.00,40.00,0,-999,0,0.00
2013-12-3,44,34,27,-100,-100,-100,0,0,100,0.00,40.00,0,-999,0,0.00
2013-12-4,39,30,26,-100,-100,-100,0,0,100,0.00,40.00,0,-999,0,0.00
2013-12-5,51,33,26,-100,-100,-100,0,0,100,0.00,40.00,0,-999,0,0.02
2013-12-6,51,42,32,-100,-100,-100,0,0,100,0.00,40.00,0,-999,0,0.07
2013-12-7,32,29,22,-100,-100,-100,0,0,100,0.00,40.00,0,-999,0,0.10
2013-12-8,26,23,17,-100,-100,-100,0,0,100,0.00,40.00,0,-999,0,0.00
2013-12-9,31,26,20,-100,-100,-100,0,0,100,0.00,40.00,0,-999,0,0.15
2013-12-10,31,27,19,-100,-100,-100,0,0,100,0.00,40.00,0,-999,0,0.02
2013-12-11,27,22,18,-100,-100,-100,0,0,100,0.00,40.00,0,-999,0,0.02
2013-12-12,20,14,9,-100,-100,-100,0,0,100,0.00,40.00,0,-999,0,0.00
2013-12-13,23,14,6,-100,-100,-100,0,0,100,0.00,40.00,0,-999,0,0.00
2013-12-14,10,6,3,-100,-100,-100,0,0,100,0.00,40.00,0,-999,0,0.03
2013-12-15,25,18,10,-100,-100,-100,0,0,100,0.00,40.00,0,-999,0,0.30
2013-12-16,22,18,7,-100,-100,-100,0,0,100,0.00,40.00,0,-999,0,0.01
2013-12-17,12,3,-12,-100,-100,-100,0,0,100,0.00,40.00,0,-999,0,0.10
2013-12-18,26,19,11,-100,-100,-100,0,0,100,0.00,40.00,0,-999,0,0.05
2013-12-19,38,29,22,-100,-100,-100,0,0,100,0.00,40.00,0,-999,0,0.00
2013-12-20,44,36,27,-100,-100,-100,0,0,100,0.00,40.00,0,-999,0,0.00
2013-12-21,53,44,38,-100,-100,-100,0,0,100,0.00,40.00,0,-999,0,0.00
2013-12-22,47,37,31,-100,-100,-100,0,0,100,0.00,40.00,0,-999,0,0.09
2013-12-23,36,32,31,-100,-100,-100,0,0,100,0.00,40.00,0,-999,0,0.40
2013-12-24,33,27,20,-100,-100,-100,0,0,100,0.00,40.00,0,-999,0,0.05
2013-12-25,20,14,7,-100,-100,-100,0,0,100,0.00,40.00,0,-999,0,0.00
2013-12-26,28,21,14,-100,-100,-100,0,0,100,0.00,40.00,0,-999,0,0.07
2013-12-27,30,26,22,-100,-100,-100,0,0,100,0.00,40.00,0,-999,0,0.01
2013-12-28,41,32,24,-100,-100,-100,0,0,100,0.00,40.00,0,-999,0,0.00
2013-12-29,40,33,27,-100,-100,-100,0,0,100,0.00,40.00,0,-999,0,0.85
2013-12-30,35,28,11,-100,-100,-100,0,0,100,0.00,40.00,0,-999,0,0.57
2013-12-31,20,12,4,-100,-100,-100,0,0,100,0.00,40.00,0,-999,0,0.00
2014-1-1,19,15,11,-100,-100,-100,0,0,100,0.00,40.00,0,-999,0,0.00
2014-1-2,13,7,-2,-100,-100,-100,0,0,100,0.00,40.00,0,-999,0,0.04